TimePDT,TemperatureF,Dew PointF,Humidity,Sea Level PressureIn,VisibilityMPH,Wind Direction,Wind SpeedMPH,Gust SpeedMPH,PrecipitationIn,Events,Conditions,WindDirDegrees,DateUTC
12:56 AM,77.0,42.1,29,29.88,10.0,WNW,6.9,-,N/A,,Clear,290,2013-06-17 07:56:00
1:56 AM,73.9,43.0,33,29.90,10.0,Calm,Calm,-,N/A,,Clear,0,2013-06-17 08:56:00
2:56 AM,72.0,44.1,37,29.91,10.0,West,4.6,-,N/A,,Clear,280,2013-06-17 09:56:00
3:56 AM,70.0,45.0,41,29.92,10.0,WSW,3.5,-,N/A,,Clear,250,2013-06-17 10:56:00
4:56 AM,69.1,44.1,40,29.94,10.0,Calm,Calm,-,N/A,,Clear,0,2013-06-17 11:56:00
5:56 AM,66.0,45.0,47,29.95,10.0,ESE,4.6,-,N/A,,Clear,120,2013-06-17 12:56:00
6:56 AM,70.0,46.9,44,29.96,10.0,ESE,8.1,-,N/A,,Clear,110,2013-06-17 13:56:00
7:56 AM,73.0,46.9,39,29.97,10.0,ENE,8.1,-,N/A,,Clear,70,2013-06-17 14:56:00
8:56 AM,75.0,46.0,36,29.97,10.0,East,8.1,-,N/A,,Clear,90,2013-06-17 15:56:00
9:56 AM,79.0,46.0,31,29.96,10.0,North,5.8,-,N/A,,Clear,10,2013-06-17 16:56:00
10:56 AM,80.1,45.0,29,29.95,10.0,Variable,4.6,-,N/A,,Clear,0,2013-06-17 17:56:00
11:56 AM,82.0,45.0,27,29.93,10.0,North,5.8,-,N/A,,Clear,10,2013-06-17 18:56:00
12:56 PM,84.0,44.1,25,29.90,10.0,NE,6.9,-,N/A,,Clear,40,2013-06-17 19:56:00
1:56 PM,86.0,43.0,22,29.88,10.0,North,8.1,16.1,N/A,,Clear,350,2013-06-17 20:56:00
2:56 PM,87.1,43.0,21,29.86,10.0,NW,6.9,-,N/A,,Clear,320,2013-06-17 21:56:00
3:56 PM,87.1,43.0,21,29.83,10.0,NW,10.4,-,N/A,,Clear,310,2013-06-17 22:56:00
4:56 PM,87.1,43.0,21,29.81,10.0,Variable,5.8,-,N/A,,Clear,0,2013-06-17 23:56:00
5:56 PM,84.9,44.1,24,29.79,10.0,North,11.5,-,N/A,,Clear,360,2013-06-18 00:56:00
6:56 PM,84.9,45.0,25,29.77,10.0,North,9.2,-,N/A,,Clear,360,2013-06-18 01:56:00
7:56 PM,81.0,46.0,29,29.76,10.0,NNE,5.8,-,N/A,,Clear,20,2013-06-18 02:56:00
8:56 PM,77.0,46.9,34,29.76,10.0,NW,4.6,-,N/A,,Clear,310,2013-06-18 03:56:00
9:56 PM,75.9,45.0,33,29.77,10.0,WSW,4.6,-,N/A,,Clear,250,2013-06-18 04:56:00
10:56 PM,75.0,45.0,34,29.77,10.0,West,12.7,-,N/A,,Clear,270,2013-06-18 05:56:00
11:56 PM,71.1,44.1,38,29.79,10.0,WNW,13.8,19.6,N/A,,Clear,290,2013-06-18 06:56:00